This is the latest recevied weather packets stored in our database for station/object WX5HOT. If no packets are shown the sender has not sent any weather packets the latest 10 day(s).
| Time | Temp. | Humidity | Pressure | Rain* | Wind** | Luminosity | Snow |
|---|---|---|---|---|---|---|---|
| 1777339844 | 23.33° C | 92% | 1061.6 hPa | 0 mm | - | 0 W/m² | - |
| 1777339542 | 23.89° C | 91% | 1061.6 hPa | 0 mm | - | 0 W/m² | - |
| 1777339238 | 23.33° C | 92% | 1061 hPa | 0 mm | - | 0 W/m² | - |
| 1777338937 | 23.89° C | 91% | 1061.2 hPa | 0 mm | - | 0 W/m² | - |
| 1777338633 | 23.89° C | 91% | 1061.2 hPa | 0 mm | - | 0 W/m² | - |
| 1777338331 | 23.89° C | 91% | 1061.2 hPa | 0 mm | - | 1 W/m² | - |
| 1777338027 | 23.89° C | 91% | 1061.4 hPa | 0 mm | - | 3 W/m² | - |
| 1777337723 | 23.89° C | 91% | 1061.4 hPa | 0 mm | - | 4 W/m² | - |
| 1777337421 | 23.89° C | 90% | 1061.3 hPa | 0 mm | - | 4 W/m² | - |
| 1777337117 | 23.89° C | 90% | 1061.4 hPa | 0 mm | - | 10 W/m² | - |
| 1777336815 | 23.89° C | 90% | 1061.1 hPa | 0 mm | - | 13 W/m² | - |
| 1777336515 | 24.44° C | 90% | 1061.3 hPa | 0 mm | - | 18 W/m² | - |
| 1777336211 | 24.44° C | 88% | 1061.1 hPa | 0 mm | - | 22 W/m² | - |
| 1777335909 | 24.44° C | 86% | 1061 hPa | 0 mm | - | 33 W/m² | - |
| 1777335605 | 25° C | 86% | 1060.9 hPa | 0 mm | - | 41 W/m² | - |
| 1777335303 | 25° C | 84% | 1060.9 hPa | 0 mm | - | 50 W/m² | - |
| 1777335000 | 25° C | 83% | 1061 hPa | 0 mm | - | 55 W/m² | - |
| 1777334697 | 25° C | 83% | 1060.8 hPa | 0 mm | - | 62 W/m² | - |
| 1777334395 | 25° C | 83% | 1060.8 hPa | 0 mm | - | 77 W/m² | - |
| 1777334091 | 25° C | 83% | 1060.8 hPa | 0 mm | - | 74 W/m² | - |
| 1777333790 | 25.56° C | 83% | 1060.5 hPa | 0 mm | - | 75 W/m² | - |
| 1777333488 | 25.56° C | 82% | 1060.8 hPa | 0 mm | - | 95 W/m² | - |
| 1777333185 | 25.56° C | 82% | 1060.6 hPa | 0 mm | - | 94 W/m² | - |
| 1777332883 | 25.56° C | 82% | 1060.5 hPa | 0 mm | - | 99 W/m² | - |
| 1777332580 | 25.56° C | 81% | 1060.5 hPa | 0 mm | - | 116 W/m² | - |
* Rain latest hour (hover to see other rain measurements)
** Current wind speed in m/s (hover to see current wind gust speed)